SCP
0 0 0 0 0 0 0 0 0 0 0 0 0 0 0 0 0 0 0 0 0 0 0 0 0 0 0 0 0 0 0 0 0 0 0 0 0 0 0 0 0 0 0 0
0 0 0 0 0 0 0 0 0 0 0 0 0 0 0 0 0 0 0 0 0 0 0 0 0 0 0 0 0 0 0 0 0 0 0 0 0 0 0 0 0 0 0 0
0 0 0 0 0 0 0 0 0 0 0 0 0 0 0 0 0 0 0 0 0 0 0 0 0 0 0 0 0 0 0 0 0 0 0 0 0 0 0 0 0 0 0 0
0 0 0 0 0 0 0 0 0 0 0 0 0 0 0 0 0 0 0 0 0 0 0 0 0 0 0 0 0 0 0 0 0 0 0 0 0 0 0 0 0 0 0 0
0 0 0 0 0 0 0 0 0 0 0 0 0 0 0 0 0 0 0 0 0 0 0 0 0 0 0 0 0 0 0 0 0 0 0 0 0 0 0 0 0 0 0 0
0 0 0 0 0 0 0 0 0 0 0 0 0 0 0 0 0 0 0 0 0 0 0 0 0 0 0 0 0 0 0 0 0 0 0 0 0 0 0 0 0 0 0 0
0 0 0 0 0 0 0 0 0 0 0 0 0 0 0 0 0 0 0 0 0 0 0 0 0 0 0 0 0 0 0 0 0 0 0 0 0 0 0 0 0 0 0 0
0 0 0 0 0 0 0 0 0 0 0 0 0 0 0 0 0 0 0 0 0 0 0 0 0 0 0 0 0 0 0 0 0 0 0 0 0 0 0 0 0 0 0 0
0 -0 0 0 0 0 0 0 0 0 0 0 0 0 0 0 0 0 0 0 0 0 0 0 0 0 0 0 0 0 0 0 0 0 0 0 0 0 0 0 0 0 0 0
0 0 0 0 0 0 0 0 0 0 0 0 0 0 0 0 0 0 0 0 0 0 0 0 0 0 0 0 0 0 0 0 0 0 0 0 0 0 0 0 0 0 0 0
0 0 0 0 0 0 0 0 0 0 0 0 0 0 0 0 0 0 0 0 0 0 0 0 0 0 0 0 0 0 0 0 0 0 0 0 0 0 0 0 0 0 0 0
0 0 0 0 0 0 0 0 -0 0 0 0 0 0 0 0 0 0 0 0 0 0 0 0 0 0 0 0 0 0 0 0 0 0 0 0 0 0 0 0 0 0 0 0
0 0 0 0 0 0 0 0 0 0 0 0 0 0 0 0 0 0 0 0 0 0 0 0 0 0 0 0 0 0 0 0 0 0 0 0 0 0 0 0 0 0 0 0
0 0 0 0 0 0 0 0 0 0 0 0 0 0 0 0 0 0 0 0 0 0 0 0 0 0 0 0 0 0 0 0 0 0 0 0 0 0 0 0 0 0 0 0
0 0 0 0 0 0 0 0 0 0 0 0 0 0 0 0 0 0 0 0 0 0 0 0 0 0 0 0 0 0 0 0 0 0 0 0 0 0 0 0 0 0 0 0
0 0 0 0 0 0 0 0 0 0 0 0 0 0 0 0 0 0 0 0 0 0 0 0 0 0 0 0 0 0 0 0 0 0 0 0 0 0 0 0 0 0 0 0
0 0 0 0 0 0 0 0 0 0 0 0 0 0 0 0 0 0 0 0 0 0 0 0 0 0 0 0 0 0 0 0 0 0 0 0 0 0 0 0 0 0 0 0
0 0 0 0 0 0 0 0 0 0 0 0 0 0 0 0 0 0 0 0 0 0 0 0 0 0 0 0 0 0 0 0 0 0 0 0 0 0 0 0 0 0 0 0
0 0 0 -0 -0 -0 0 0 -0 0 0 0 0 0 0 0 0 0 0 0 0 0 0 0 0 0 0 0 -0 0 0 0 0 0 0 0 0 0 0 0 0 0 0 0
0 0 0 -0 -0 0 -0 0 -0 0 0 0 0 0 0 0 0 0 0 0 0 0 0 0 0 0 0 0 0 0 0 0 0 0 0 0 0 0 0 -0 0 0 0 0
0 0 -0 0 0 0 0 0 0 0 0 0 0 0 0 0 0 0 0 0 0 0 0 0 0 0 0 0 0 0 0 0 0 0 0 0 0 0 -0 0 0 0 0 0
0 0 -0 -0 -0 0 0 0 0 0 0 0 0 0 0 0 0 0 0 0 0 0 0 0 0 -0 -0 -0 0 0 0 0 0 0 0 0 0 0 0 0 0 0 -0 -0
-0 -0 -0 -0 -0 0 0 0 0 0 0 0 0 0 0 0 0 0 0 0 0 0 0 0 -0 0 0 0 0 0 0 0 0 0 0 0 -0 0 0 0 0 0 0 0
0 -0 -0 -0 0 0 0 0 0 0 0 0 0 0 0 0 0 0 0 0 0 0 0 0 -0 -0 -0 -0 0 0 0 0 0 0 0 0 0 0 0 0 0 0 0 0
-0 -0 0 0 0 0 0 0 0 0 0 0 0 0 0 0 0 0 0 0 0 0 0 -0 -0 -0 0 0 0 0 0 0 0 0 0 0 0 0 0 0 0 0 0 0
-0 -0 0 -0 0 0 0 0 0 0 0 0 0 0 0 0 0 0 0 0 0 0 0 -0 0 0 0 0 0 0 0 0 0 0 0 0 0 0 0 0 0 0 0 0
-0 0 0 0 0 0 0 0 0 0 0 0 0 0 0 0 0 0 0 0 0 0 -0 0 0 0 0 0 0 0 0 0 0 0 0 0 0 0 0 0 0 0 0 0
Wind_Speed_500mb
52 48 46 50 39 34 56 49 5 26 39 10 8 7 10 2 5 6 5 4 4 10 11 7 5 7 2 13 18 8 5 2 9 5 10 9 8 7 10 8 8 7 4 16
50 51 48 42 46 41 52 27 13 36 55 9 7 4 3 2 7 6 7 7 2 3 9 2 4 6 6 14 11 10 10 4 8 5 6 3 8 11 9 9 5 12 6 14
55 49 55 48 46 36 70 21 7 8 26 8 10 8 7 8 13 2 7 5 8 5 2 5 7 9 5 11 4 10 4 1 12 11 5 6 11 12 19 14 7 7 22 25
64 57 59 56 53 43 74 35 12 21 12 12 10 20 16 16 13 7 16 9 14 11 7 5 7 7 9 8 13 10 5 8 9 13 31 18 28 30 24 21 24 14 26 15
67 64 57 65 59 53 91 35 14 19 14 21 28 22 19 21 10 18 12 12 13 15 9 8 15 14 11 11 16 12 8 6 6 12 14 16 27 26 30 34 32 30 43 54
72 72 66 67 75 67 79 53 37 39 29 13 19 16 20 29 27 25 10 16 7 16 11 19 18 9 19 21 16 14 11 4 4 12 9 16 14 14 26 10 11 14 14 25
72 74 73 70 87 82 74 63 37 26 15 18 16 20 32 24 34 13 9 8 12 17 22 33 29 34 27 15 7 14 9 6 4 8 11 6 10 7 10 20 11 29 20 20
70 75 77 83 89 93 75 64 51 35 6 29 14 14 16 21 14 7 13 10 17 30 12 4 6 5 8 7 9 4 6 5 2 1 5 17 9 9 10 12 15 27 34 27
69 76 79 83 85 95 86 64 69 66 17 25 39 20 29 10 9 7 7 14 30 26 3 3 10 12 9 6 4 7 8 5 5 4 4 11 6 9 5 7 10 13 18 13
66 72 71 79 81 88 91 66 49 68 36 28 55 14 25 25 14 8 15 17 14 21 6 9 7 8 1 10 19 13 7 5 9 8 8 19 14 15 10 10 12 23 21 16
70 75 75 82 73 81 75 75 88 77 20 29 65 53 43 32 30 13 30 15 7 8 11 10 8 7 12 5 12 14 18 18 9 6 6 18 28 12 15 9 14 29 23 22
49 75 71 70 59 76 67 66 78 52 46 22 60 59 59 58 59 50 56 6 17 24 9 10 5 4 3 7 7 8 7 15 13 23 16 4 58 12 37 8 12 25 25 21
9 57 57 52 49 73 50 45 71 73 43 29 48 46 53 53 47 46 30 18 30 28 16 9 2 8 8 9 11 11 9 21 5 3 14 35 52 54 53 41 39 31 29 28
19 7 29 39 42 48 43 65 48 60 15 10 15 45 52 54 55 53 55 30 47 37 27 7 5 6 17 7 4 7 10 22 11 13 28 43 58 52 59 57 54 56 47 41
25 17 14 21 27 48 35 31 63 79 29 6 16 34 31 52 54 54 49 40 47 28 14 6 8 5 5 1 4 7 21 16 13 16 29 13 12 13 19 29 38 42 44 49
25 25 17 18 17 26 26 10 40 60 58 14 7 11 19 31 40 42 44 39 40 21 17 9 10 9 13 7 8 16 62 66 73 35 36 32 33 29 25 26 26 27 32 36
23 21 21 22 12 21 33 16 7 50 83 12 9 8 12 35 36 27 33 35 16 13 13 12 8 10 12 5 19 9 45 53 68 74 74 51 68 38 21 25 27 26 26 29
22 18 26 26 30 38 49 62 52 51 82 17 10 6 12 29 11 12 16 13 13 10 9 7 6 7 8 12 9 49 74 76 64 60 63 68 58 37 36 41 35 29 27 33
21 22 28 34 28 25 62 60 84 66 49 19 11 15 9 27 9 14 10 10 4 9 3 5 10 6 16 16 36 51 64 53 52 38 51 69 71 61 50 42 37 37 34 36
22 27 12 9 33 45 34 25 34 37 28 16 6 21 9 23 13 8 13 8 6 6 6 13 7 12 37 40 47 71 56 46 51 51 44 48 55 62 69 70 53 39 36 35
19 12 20 33 38 40 32 20 18 8 7 17 16 10 17 18 7 7 4 6 6 5 5 7 7 10 13 59 96 111 106 91 79 66 54 36 27 28 32 53 60 56 46 45
19 20 23 18 14 24 14 14 13 9 13 14 16 20 20 19 16 8 8 5 2 8 8 2 9 10 60 49 53 62 69 80 92 100 99 87 67 43 31 26 35 56 57 48
36 25 12 12 16 19 13 19 6 12 9 22 33 16 20 15 10 12 6 9 7 8 3 9 10 29 44 30 27 26 43 53 53 72 80 85 86 75 66 40 28 37 56 57
14 8 9 14 16 11 3 16 11 17 46 66 51 20 9 12 6 6 11 2 4 3 5 16 8 47 33 23 30 36 25 33 43 39 45 63 72 74 71 65 40 38 50 61
12 9 14 16 2 11 8 35 34 29 74 77 29 20 18 5 10 6 10 6 9 14 12 8 15 18 10 10 10 9 15 23 32 37 45 50 53 60 67 76 58 47 48 54
11 17 11 8 6 4 8 19 51 76 80 52 20 9 8 5 13 9 16 18 15 9 8 21 19 9 7 8 8 10 18 19 24 32 36 39 47 51 56 70 72 50 49 51
13 8 13 19 23 9 26 50 73 87 66 9 8 10 9 11 6 4 10 11 8 6 8 11 12 10 15 18 18 19 20 19 14 13 16 23 30 35 44 72 75 52 47 49
Wind_Direction_500mb
262 262 259 236 232 248 223 200 167 177 168 111 225 193 206 163 160 221 263 276 126 179 169 172 191 191 129 162 140 140 56 187 265 214 106 69 312 220 172 135 261 243 214 266
258 255 256 242 236 242 229 191 153 175 169 165 206 234 188 232 155 211 200 232 163 101 189 147 134 117 60 147 147 161 180 224 319 328 24 112 231 196 214 99 90 221 158 261
264 253 243 231 238 234 212 184 140 155 190 221 162 155 199 203 198 186 196 141 121 124 102 27 180 155 174 172 136 115 133 242 204 205 191 93 230 201 196 144 163 236 230 276
259 251 242 232 224 227 211 203 182 179 177 198 199 172 171 183 179 223 201 216 210 169 150 141 210 147 116 173 164 180 229 224 214 237 265 266 261 251 238 212 205 193 270 292
260 252 244 231 223 218 214 208 176 164 175 146 179 189 197 186 140 173 222 215 159 210 190 201 193 139 171 185 170 181 194 262 10 294 242 237 259 248 233 235 240 252 262 278
256 250 239 230 220 218 212 215 203 192 166 163 175 185 190 201 146 220 184 189 147 206 206 94 89 111 137 148 150 186 157 218 67 269 341 311 302 231 199 200 187 177 202 235
255 245 241 232 218 216 215 217 196 178 213 185 193 173 193 186 196 152 148 152 155 135 145 118 97 79 72 90 73 162 139 148 111 274 340 356 237 192 184 197 204 210 262 269
257 242 236 232 224 223 228 221 205 193 185 191 177 164 174 134 139 101 135 167 133 152 131 102 91 2 26 335 7 79 129 171 174 164 265 289 288 156 174 165 273 217 225 253
248 243 234 230 224 225 220 234 216 208 148 210 164 163 164 152 140 110 108 153 151 149 181 159 210 209 185 205 29 288 184 74 126 102 192 249 249 154 115 143 297 179 181 215
241 241 237 233 224 225 225 243 223 215 224 210 172 160 177 165 143 121 132 147 141 152 159 200 210 232 185 171 167 171 164 180 200 205 251 282 244 156 164 84 244 176 195 198
244 242 234 229 226 226 226 232 228 205 222 196 197 196 159 153 161 150 144 113 178 150 197 205 210 194 210 154 161 176 169 161 191 175 200 281 147 118 178 211 158 180 196 200
251 228 223 222 214 218 219 228 233 229 227 193 197 206 207 215 214 173 168 178 148 159 176 211 192 170 122 180 221 164 224 196 179 192 213 224 185 224 216 200 203 207 213 215
267 212 213 203 220 217 216 219 223 222 218 189 198 199 201 206 207 202 159 198 173 181 172 134 171 216 141 178 236 193 230 211 235 82 246 237 240 245 247 248 254 245 233 231
305 301 201 203 210 216 226 220 214 206 193 149 183 197 199 199 202 205 206 209 181 182 171 139 183 202 190 222 233 191 196 140 186 262 279 278 264 255 264 263 259 254 245 243
306 297 297 184 206 217 218 203 222 220 192 138 148 177 180 194 201 201 205 207 180 161 155 166 213 190 145 184 18 230 192 179 180 233 223 223 254 263 263 248 247 250 248 244
270 278 290 231 225 230 245 266 233 218 216 166 128 123 164 171 190 194 197 187 181 177 165 185 213 217 191 217 237 235 213 222 234 243 263 252 264 271 258 249 255 252 247 245
262 272 271 280 244 233 218 214 133 208 208 183 120 102 122 156 152 149 164 174 168 168 174 202 190 212 214 252 249 187 231 238 243 247 250 263 260 257 254 256 251 252 258 239
261 263 273 262 273 279 259 228 221 195 200 176 122 112 141 157 129 113 140 136 150 167 183 169 200 174 216 253 244 237 242 243 244 243 249 254 257 256 249 244 248 256 258 231
258 275 270 278 285 264 262 231 229 199 193 160 150 143 148 158 113 116 118 140 146 173 229 204 170 205 228 217 219 235 238 228 235 253 250 245 248 251 246 243 238 240 243 226
254 260 276 249 256 278 245 210 195 208 185 166 99 118 131 150 149 123 124 177 153 179 218 160 208 251 250 236 244 255 247 238 235 234 236 234 242 243 238 239 243 249 244 231
235 223 221 232 260 204 197 198 184 143 114 136 109 124 128 155 126 125 152 158 150 192 222 157 252 261 238 243 243 252 248 241 243 240 246 249 258 260 249 241 236 237 235 228
226 236 245 277 266 186 229 167 159 177 152 133 128 138 120 136 141 109 169 124 119 201 144 171 261 252 252 253 249 257 253 248 247 244 246 247 249 255 257 270 243 234 233 229
246 248 217 172 237 214 225 159 108 118 164 144 148 129 129 122 119 87 117 128 189 127 116 235 232 259 270 273 269 272 255 242 245 251 247 247 246 246 247 257 266 236 227 228
236 224 236 217 226 197 219 130 169 132 134 138 134 119 123 128 86 153 118 269 101 95 240 237 234 246 277 292 255 261 276 240 248 261 251 242 242 238 236 236 247 250 228 221
230 185 242 217 301 346 80 112 114 124 147 140 120 85 95 92 104 65 118 71 222 210 234 232 268 301 304 259 275 286 273 262 257 255 248 246 242 236 232 227 222 240 229 223
214 243 266 332 360 253 83 142 129 146 145 142 105 114 92 109 127 133 202 145 214 235 221 252 291 322 331 8 340 327 337 310 271 255 248 246 238 237 232 216 213 220 224 225
229 255 262 240 269 193 161 159 144 153 146 150 125 108 165 116 99 244 185 208 215 205 264 268 228 275 326 334 328 332 329 339 322 285 262 244 233 231 226 208 206 211 220 223
Wind_Speed_850mb
52 48 46 50 39 34 56 49 5 26 39 10 8 7 10 2 5 6 5 4 4 10 11 7 5 7 2 13 18 8 5 2 9 5 10 9 8 7 10 8 8 7 4 16
50 51 48 42 46 41 52 27 13 36 55 9 7 4 3 2 7 6 7 7 2 3 9 2 4 6 6 14 11 10 10 4 8 5 6 3 8 11 9 9 5 12 6 14
55 49 55 48 46 36 70 21 7 8 26 8 10 8 7 8 13 2 7 5 8 5 2 5 7 9 5 11 4 10 4 1 12 11 5 6 11 12 19 14 7 7 22 25
64 57 59 56 53 43 74 35 12 21 12 12 10 20 16 16 13 7 16 9 14 11 7 5 7 7 9 8 13 10 5 8 9 13 31 18 28 30 24 21 24 14 26 15
67 64 57 65 59 53 91 35 14 19 14 21 28 22 19 21 10 18 12 12 13 15 9 8 15 14 11 11 16 12 8 6 6 12 14 16 27 26 30 34 32 30 43 54
72 72 66 67 75 67 79 53 37 39 29 13 19 16 20 29 27 25 10 16 7 16 11 19 18 9 19 21 16 14 11 4 4 12 9 16 14 14 26 10 11 14 14 25
72 74 73 70 87 82 74 63 37 26 15 18 16 20 32 24 34 13 9 8 12 17 22 33 29 34 27 15 7 14 9 6 4 8 11 6 10 7 10 20 11 29 20 20
70 75 77 83 89 93 75 64 51 35 6 29 14 14 16 21 14 7 13 10 17 30 12 4 6 5 8 7 9 4 6 5 2 1 5 17 9 9 10 12 15 27 34 27
69 76 79 83 85 95 86 64 69 66 17 25 39 20 29 10 9 7 7 14 30 26 3 3 10 12 9 6 4 7 8 5 5 4 4 11 6 9 5 7 10 13 18 13
66 72 71 79 81 88 91 66 49 68 36 28 55 14 25 25 14 8 15 17 14 21 6 9 7 8 1 10 19 13 7 5 9 8 8 19 14 15 10 10 12 23 21 16
70 75 75 82 73 81 75 75 88 77 20 29 65 53 43 32 30 13 30 15 7 8 11 10 8 7 12 5 12 14 18 18 9 6 6 18 28 12 15 9 14 29 23 22
49 75 71 70 59 76 67 66 78 52 46 22 60 59 59 58 59 50 56 6 17 24 9 10 5 4 3 7 7 8 7 15 13 23 16 4 58 12 37 8 12 25 25 21
9 57 57 52 49 73 50 45 71 73 43 29 48 46 53 53 47 46 30 18 30 28 16 9 2 8 8 9 11 11 9 21 5 3 14 35 52 54 53 41 39 31 29 28
19 7 29 39 42 48 43 65 48 60 15 10 15 45 52 54 55 53 55 30 47 37 27 7 5 6 17 7 4 7 10 22 11 13 28 43 58 52 59 57 54 56 47 41
25 17 14 21 27 48 35 31 63 79 29 6 16 34 31 52 54 54 49 40 47 28 14 6 8 5 5 1 4 7 21 16 13 16 29 13 12 13 19 29 38 42 44 49
25 25 17 18 17 26 26 10 40 60 58 14 7 11 19 31 40 42 44 39 40 21 17 9 10 9 13 7 8 16 62 66 73 35 36 32 33 29 25 26 26 27 32 36
23 21 21 22 12 21 33 16 7 50 83 12 9 8 12 35 36 27 33 35 16 13 13 12 8 10 12 5 19 9 45 53 68 74 74 51 68 38 21 25 27 26 26 29
22 18 26 26 30 38 49 62 52 51 82 17 10 6 12 29 11 12 16 13 13 10 9 7 6 7 8 12 9 49 74 76 64 60 63 68 58 37 36 41 35 29 27 33
21 22 28 34 28 25 62 60 84 66 49 19 11 15 9 27 9 14 10 10 4 9 3 5 10 6 16 16 36 51 64 53 52 38 51 69 71 61 50 42 37 37 34 36
22 27 12 9 33 45 34 25 34 37 28 16 6 21 9 23 13 8 13 8 6 6 6 13 7 12 37 40 47 71 56 46 51 51 44 48 55 62 69 70 53 39 36 35
19 12 20 33 38 40 32 20 18 8 7 17 16 10 17 18 7 7 4 6 6 5 5 7 7 10 13 59 96 111 106 91 79 66 54 36 27 28 32 53 60 56 46 45
19 20 23 18 14 24 14 14 13 9 13 14 16 20 20 19 16 8 8 5 2 8 8 2 9 10 60 49 53 62 69 80 92 100 99 87 67 43 31 26 35 56 57 48
36 25 12 12 16 19 13 19 6 12 9 22 33 16 20 15 10 12 6 9 7 8 3 9 10 29 44 30 27 26 43 53 53 72 80 85 86 75 66 40 28 37 56 57
14 8 9 14 16 11 3 16 11 17 46 66 51 20 9 12 6 6 11 2 4 3 5 16 8 47 33 23 30 36 25 33 43 39 45 63 72 74 71 65 40 38 50 61
12 9 14 16 2 11 8 35 34 29 74 77 29 20 18 5 10 6 10 6 9 14 12 8 15 18 10 10 10 9 15 23 32 37 45 50 53 60 67 76 58 47 48 54
11 17 11 8 6 4 8 19 51 76 80 52 20 9 8 5 13 9 16 18 15 9 8 21 19 9 7 8 8 10 18 19 24 32 36 39 47 51 56 70 72 50 49 51
13 8 13 19 23 9 26 50 73 87 66 9 8 10 9 11 6 4 10 11 8 6 8 11 12 10 15 18 18 19 20 19 14 13 16 23 30 35 44 72 75 52 47 49
Wind_Direction_850mb
262 262 259 236 232 248 223 200 167 177 168 111 225 193 206 163 160 221 263 276 126 179 169 172 191 191 129 162 140 140 56 187 265 214 106 69 312 220 172 135 261 243 214 266
258 255 256 242 236 242 229 191 153 175 169 165 206 234 188 232 155 211 200 232 163 101 189 147 134 117 60 147 147 161 180 224 319 328 24 112 231 196 214 99 90 221 158 261
264 253 243 231 238 234 212 184 140 155 190 221 162 155 199 203 198 186 196 141 121 124 102 27 180 155 174 172 136 115 133 242 204 205 191 93 230 201 196 144 163 236 230 276
259 251 242 232 224 227 211 203 182 179 177 198 199 172 171 183 179 223 201 216 210 169 150 141 210 147 116 173 164 180 229 224 214 237 265 266 261 251 238 212 205 193 270 292
260 252 244 231 223 218 214 208 176 164 175 146 179 189 197 186 140 173 222 215 159 210 190 201 193 139 171 185 170 181 194 262 10 294 242 237 259 248 233 235 240 252 262 278
256 250 239 230 220 218 212 215 203 192 166 163 175 185 190 201 146 220 184 189 147 206 206 94 89 111 137 148 150 186 157 218 67 269 341 311 302 231 199 200 187 177 202 235
255 245 241 232 218 216 215 217 196 178 213 185 193 173 193 186 196 152 148 152 155 135 145 118 97 79 72 90 73 162 139 148 111 274 340 356 237 192 184 197 204 210 262 269
257 242 236 232 224 223 228 221 205 193 185 191 177 164 174 134 139 101 135 167 133 152 131 102 91 2 26 335 7 79 129 171 174 164 265 289 288 156 174 165 273 217 225 253
248 243 234 230 224 225 220 234 216 208 148 210 164 163 164 152 140 110 108 153 151 149 181 159 210 209 185 205 29 288 184 74 126 102 192 249 249 154 115 143 297 179 181 215
241 241 237 233 224 225 225 243 223 215 224 210 172 160 177 165 143 121 132 147 141 152 159 200 210 232 185 171 167 171 164 180 200 205 251 282 244 156 164 84 244 176 195 198
244 242 234 229 226 226 226 232 228 205 222 196 197 196 159 153 161 150 144 113 178 150 197 205 210 194 210 154 161 176 169 161 191 175 200 281 147 118 178 211 158 180 196 200
251 228 223 222 214 218 219 228 233 229 227 193 197 206 207 215 214 173 168 178 148 159 176 211 192 170 122 180 221 164 224 196 179 192 213 224 185 224 216 200 203 207 213 215
267 212 213 203 220 217 216 219 223 222 218 189 198 199 201 206 207 202 159 198 173 181 172 134 171 216 141 178 236 193 230 211 235 82 246 237 240 245 247 248 254 245 233 231
305 301 201 203 210 216 226 220 214 206 193 149 183 197 199 199 202 205 206 209 181 182 171 139 183 202 190 222 233 191 196 140 186 262 279 278 264 255 264 263 259 254 245 243
306 297 297 184 206 217 218 203 222 220 192 138 148 177 180 194 201 201 205 207 180 161 155 166 213 190 145 184 18 230 192 179 180 233 223 223 254 263 263 248 247 250 248 244
270 278 290 231 225 230 245 266 233 218 216 166 128 123 164 171 190 194 197 187 181 177 165 185 213 217 191 217 237 235 213 222 234 243 263 252 264 271 258 249 255 252 247 245
262 272 271 280 244 233 218 214 133 208 208 183 120 102 122 156 152 149 164 174 168 168 174 202 190 212 214 252 249 187 231 238 243 247 250 263 260 257 254 256 251 252 258 239
261 263 273 262 273 279 259 228 221 195 200 176 122 112 141 157 129 113 140 136 150 167 183 169 200 174 216 253 244 237 242 243 244 243 249 254 257 256 249 244 248 256 258 231
258 275 270 278 285 264 262 231 229 199 193 160 150 143 148 158 113 116 118 140 146 173 229 204 170 205 228 217 219 235 238 228 235 253 250 245 248 251 246 243 238 240 243 226
254 260 276 249 256 278 245 210 195 208 185 166 99 118 131 150 149 123 124 177 153 179 218 160 208 251 250 236 244 255 247 238 235 234 236 234 242 243 238 239 243 249 244 231
235 223 221 232 260 204 197 198 184 143 114 136 109 124 128 155 126 125 152 158 150 192 222 157 252 261 238 243 243 252 248 241 243 240 246 249 258 260 249 241 236 237 235 228
226 236 245 277 266 186 229 167 159 177 152 133 128 138 120 136 141 109 169 124 119 201 144 171 261 252 252 253 249 257 253 248 247 244 246 247 249 255 257 270 243 234 233 229
246 248 217 172 237 214 225 159 108 118 164 144 148 129 129 122 119 87 117 128 189 127 116 235 232 259 270 273 269 272 255 242 245 251 247 247 246 246 247 257 266 236 227 228
236 224 236 217 226 197 219 130 169 132 134 138 134 119 123 128 86 153 118 269 101 95 240 237 234 246 277 292 255 261 276 240 248 261 251 242 242 238 236 236 247 250 228 221
230 185 242 217 301 346 80 112 114 124 147 140 120 85 95 92 104 65 118 71 222 210 234 232 268 301 304 259 275 286 273 262 257 255 248 246 242 236 232 227 222 240 229 223
214 243 266 332 360 253 83 142 129 146 145 142 105 114 92 109 127 133 202 145 214 235 221 252 291 322 331 8 340 327 337 310 271 255 248 246 238 237 232 216 213 220 224 225
229 255 262 240 269 193 161 159 144 153 146 150 125 108 165 116 99 244 185 208 215 205 264 268 228 275 326 334 328 332 329 339 322 285 262 244 233 231 226 208 206 211 220 223